This is the latest recevied weather packets stored in our database for station/object DD3UTS-13. If no packets are shown the sender has not sent any weather packets the latest 10 day(s).
| Time | Temp. | Humidity | Pressure | Rain* | Wind** | Luminosity | Snow |
|---|---|---|---|---|---|---|---|
| 1777446032 | 8.33° C | 50% | 1025.5 hPa | 0 mm | - | 406 W/m² | - |
| 1777445732 | 7.78° C | 50% | 1025.6 hPa | 0 mm | - | 402 W/m² | - |
| 1777445431 | 7.78° C | 51% | 1025.5 hPa | 0 mm | - | 393 W/m² | - |
| 1777445132 | 7.22° C | 51% | 1025.4 hPa | 0 mm | - | 385 W/m² | - |
| 1777444832 | 7.22° C | 52% | 1025.3 hPa | 0 mm | - | 374 W/m² | - |
| 1777444531 | 6.67° C | 53% | 1025.2 hPa | 0 mm | - | 368 W/m² | - |
| 1777444237 | 6.11° C | 53% | 1025.1 hPa | 0 mm | - | 364 W/m² | - |
| 1777443932 | 6.11° C | 54% | 1025 hPa | 0 mm | - | 362 W/m² | - |
| 1777443632 | 5.56° C | 56% | 1025 hPa | 0 mm | - | 359 W/m² | - |
| 1777443331 | 5° C | 57% | 1024.9 hPa | 0 mm | - | 355 W/m² | - |
| 1777443032 | 4.44° C | 58% | 1024.9 hPa | 0 mm | - | 352 W/m² | - |
| 1777442732 | 3.89° C | 60% | 1024.8 hPa | 0 mm | - | 347 W/m² | - |
| 1777442431 | 3.33° C | 61% | 1024.8 hPa | 0 mm | - | 139 W/m² | - |
| 1777442132 | 3.33° C | 60% | 1024.7 hPa | 0 mm | - | 124 W/m² | - |
| 1777441831 | 3.33° C | 61% | 1024.7 hPa | 0 mm | - | 114 W/m² | - |
| 1777441532 | 3.33° C | 61% | 1024.6 hPa | 0 mm | - | 107 W/m² | - |
| 1777441232 | 2.78° C | 60% | 1024.6 hPa | 0 mm | - | 104 W/m² | - |
| 1777440931 | 2.78° C | 60% | 1024.4 hPa | 0 mm | - | 99 W/m² | - |
| 1777440632 | 2.78° C | 60% | 1024.4 hPa | 0 mm | - | 91 W/m² | - |
| 1777440332 | 2.78° C | 60% | 1024.4 hPa | 0 mm | - | 88 W/m² | - |
| 1777440032 | 2.22° C | 61% | 1024.3 hPa | 0 mm | - | 80 W/m² | - |
| 1777439732 | 2.22° C | 61% | 1024.3 hPa | 0 mm | - | 76 W/m² | - |
| 1777439432 | 1.67° C | 61% | 1024.1 hPa | 0 mm | - | 71 W/m² | - |
| 1777439132 | 1.67° C | 61% | 1024.2 hPa | 0 mm | - | 66 W/m² | - |
| 1777438831 | 1.67° C | 62% | 1024.1 hPa | 0 mm | - | 60 W/m² | - |
* Rain latest 24 hours (hover to see other rain measurements)
** Current wind speed in m/s (hover to see current wind gust speed)